Location: Unspecified
(0.0000°N, 0.0000°E)
Time: 19:27:56
(UTC+00:00)

DOVE 4 - Pass Details

Date: 08 December 2017
Orbit: 588 x 804 km, 97.7° (Epoch: 19 January)

Event Time Altitude Azimuth Distance (km) Brightness Sun altitude
Rises 04:50:56 0° 4° (N) 2,923 ? -14.0°
Reaches altitude 10° 04:53:11 10° 360° (N) 1,989 ? -13.5°
Maximum altitude 04:57:24 55° 282° (WNW) 727 ? -12.5°
Drops below altitude 10° 05:01:28 10° 204° (SSW) 1,925 ? -11.6°
Sets 05:03:38 0° 199° (SSW) 2,820 ? -11.1°
